Flag for Greenland

Past Weather in Sisimiut, Greenland — Yesterday and Last 2 Weeks

Now
35 °F

Chilly.


Feels Like: 27 °F
Forecast: 35 / 30 °F
Wind: 9 mph from North

Location: Attu Kitsissut
Current Time: Sep 28, 2020 at 4:49:45 am
Latest Report: Sep 28, 2020 at 3:00 am
Visibility: N/A
Pressure29.84 "Hg
Humidity: 81%
Dew Point: 29 °F
Location of SisimiutLocation

Past Weather in Sisimiut — Graph

°F

Sisimiut Temperature Yesterday

Maximum temperature yesterday: 36 °F (at 11:00 pm)
Minimum temperature yesterday: 35 °F (at 7:00 am)
Average temperature yesterday: 36 °F

High & Low Weather Summary for the Past Weeks

 TemperatureHumidityPressure
High42 °F (Sep 15, 3:00 pm)97% (Sep 20, 2:00 am)30.15 "Hg (Sep 20, 2:00 am)
Low28 °F (Sep 24, 8:00 am)47% (Sep 14, 6:00 pm)29.06 "Hg (Sep 15, 4:00 pm)
Average36 °F75%29.63 "Hg
* Reported Sep 13 3:00 am — Sep 28 3:00 am, Sisimiut. Weather by CustomWeather, © 2020

Note: Actual official high and low records may vary slightly from our data, if they occured in-between our weather recording intervals... More about our weather records

Sisimiut Weather History for the Previous 24 Hours

Scroll right to see more
 ConditionsComfort  
Time TempWeatherWind HumidityBarometerVisibility
3:00 am
Mon, Sep 28
35 °FChilly.9 mph81%29.84 "HgN/A
2:00 am34 °FChilly.13 mph85%29.84 "HgN/A
1:00 am35 °FChilly.15 mph78%29.83 "HgN/A
12:00 am36 °FChilly.16 mph65%29.83 "HgN/A
11:00 pm
Sun, Sep 27
36 °FChilly.16 mph72%29.82 "HgN/A
10:00 pm36 °FChilly.22 mph72%29.82 "HgN/A
9:00 pm36 °FChilly.16 mph82%29.81 "HgN/A
8:00 pm35 °FChilly.18 mph84%29.80 "HgN/A
7:00 pm36 °FChilly.17 mph82%29.79 "HgN/A
6:00 pm35 °FChilly.21 mph80%29.78 "HgN/A
4:00 pm36 °FChilly.20 mph69%29.75 "HgN/A
3:00 pm36 °FChilly.18 mph63%29.74 "HgN/A
12:00 pm36 °FChilly.16 mph66%29.72 "HgN/A
11:00 am36 °FChilly.14 mph68%29.71 "HgN/A
10:00 am35 °FChilly.15 mph68%29.70 "HgN/A
9:00 am35 °FChilly.20 mph70%29.69 "HgN/A
7:00 am35 °FChilly.21 mph72%29.66 "HgN/A
6:00 am35 °FChilly.21 mph72%29.65 "HgN/A
5:00 am35 °FChilly.22 mph74%29.63 "HgN/A
4:00 am36 °FChilly.22 mph75%29.62 "HgN/A
Weather by CustomWeather, © 2020

See weather overview